Date String (YYYY-MM-DD hh:mm:ss) UTC,Instrument flags,absolute air pressure of the measurement (hPa),sample flow rate (lpm),inlet stack bypass flow (lpm),air temperature of the measurement (°C),ambient temperature measured by the external sensor (°C),aerosol sample conditioner tube jacket temperature (°C),OPC LED temperature (°C),internal box temperature (°C),relative humidity of the measurement (%),span deviation,mass concentration of particles derived from Lorenz-Mie calculation of OPC scattering (μg/m³),mass concentration of particles derived from Lorenz-Mie calculation of OPC scattering (μg/m³),mass concentration of particles derived from Lorenz-Mie calculation of OPC scattering (μg/m³)
DateTimeUTC,F1_M11,P_M11,Q1_M11,Q2_M11,T1_M11,T2_M11,T3_M11,T4_M11,T5_M11,U1_M11,ZSPAN_M11,X0_M11,X2_M11,X1_M11
2023-11-01 06:00:00,SystemResetWarning,0833.9,5.00,000.00,024.1,023.0,000.0,032.5,025.5,11.9,0000.4,0013.93,0005.68,0004.81
2023-11-01 06:01:00,SystemResetWarning,0833.9,5.00,000.00,024.1,023.0,000.0,032.5,025.5,11.8,0000.0,0013.67,0005.44,0004.60
2023-11-01 06:02:00,SystemResetWarning,0833.9,5.01,000.00,024.1,023.0,000.0,032.5,025.5,11.9,0000.0,0013.21,0005.24,0004.43
2023-11-01 06:03:00,SystemResetWarning,0833.8,5.00,000.00,024.1,023.0,000.0,032.5,025.4,11.9,0000.0,0012.94,0005.08,0004.30
2023-11-01 06:04:00,SystemResetWarning,0833.8,5.00,000.00,024.1,023.0,000.0,032.5,025.4,11.6,0000.0,0012.49,0005.00,0004.24
2023-11-01 06:05:00,SystemResetWarning,0833.8,5.01,000.00,024.1,023.0,000.0,032.5,025.5,11.7,0000.0,0012.84,0004.84,0004.12
2023-11-01 06:06:00,SystemResetWarning,0833.8,4.99,000.00,024.1,023.0,000.0,032.5,025.5,11.8,0000.0,0013.06,0004.74,0003.97
2023-11-01 06:07:00,SystemResetWarning,0833.8,4.99,000.00,024.1,023.0,000.0,032.5,025.4,11.9,0000.0,0012.99,0004.66,0003.87
2023-11-01 06:08:00,SystemResetWarning,0833.8,5.00,000.00,024.1,023.0,000.0,032.5,025.5,11.7,0000.0,0013.64,0004.55,0003.77
2023-11-01 06:09:00,SystemResetWarning,0833.8,5.00,000.00,024.0,023.0,000.0,032.5,025.5,11.6,0000.0,0013.78,0004.49,0003.72
2023-11-01 06:10:00,SystemResetWarning,0833.8,5.01,000.00,024.0,023.0,000.0,032.5,025.5,11.7,0000.0,0013.13,0004.41,0003.69
2023-11-01 06:11:00,SystemResetWarning,0833.7,5.00,000.00,024.0,023.0,000.0,032.5,025.5,11.6,0000.0,0013.24,0004.31,0003.61
2023-11-01 06:12:00,SystemResetWarning,0833.7,5.01,000.00,024.0,023.0,000.0,032.5,025.4,11.4,0000.0,0013.79,0004.24,0003.50
2023-11-01 06:13:00,SystemResetWarning,0833.7,5.00,000.00,024.0,023.0,000.0,032.5,025.5,11.4,0000.0,0013.62,0004.18,0003.42
2023-11-01 06:14:00,SystemResetWarning,0833.7,4.99,000.00,024.0,023.0,000.0,032.5,025.5,11.5,0000.0,0014.39,0004.10,0003.34
2023-11-01 06:15:00,SystemResetWarning,0833.7,4.99,000.00,024.0,023.0,000.0,032.5,025.5,11.5,0000.0,0014.53,0004.03,0003.26
2023-11-01 06:16:00,SystemResetWarning,0833.7,5.00,000.00,024.0,023.0,000.0,032.5,025.5,11.3,0000.0,0013.60,0004.04,0003.27
2023-11-01 06:17:00,SystemResetWarning,0833.7,5.01,000.00,024.1,023.0,000.0,032.5,025.5,11.2,0000.0,0014.48,0004.04,0003.32
2023-11-01 06:18:00,SystemResetWarning,0833.7,5.00,000.00,024.1,023.0,000.0,032.5,025.5,11.1,0000.0,0014.12,0004.07,0003.38
2023-11-01 06:19:00,SystemResetWarning,0833.7,5.00,000.00,024.1,023.0,000.0,032.5,025.5,11.5,0000.0,0013.41,0004.12,0003.47
2023-11-01 06:20:00,SystemResetWarning,0833.8,5.00,000.00,024.1,023.0,000.0,032.4,025.5,11.5,0000.0,0012.63,0004.16,0003.57
2023-11-01 06:21:00,SystemResetWarning,0833.7,5.00,000.00,024.1,023.0,000.0,032.4,025.4,11.4,0000.0,0013.08,0004.28,0003.71
2023-11-01 06:22:00,SystemResetWarning,0833.7,5.00,000.00,024.1,023.0,000.0,032.4,025.5,11.4,0000.0,0012.87,0004.43,0003.85
2023-11-01 06:23:00,SystemResetWarning,0833.7,5.00,000.00,024.1,023.0,000.0,032.4,025.5,11.4,0000.0,0012.29,0004.60,0004.06
2023-11-01 06:24:00,SystemResetWarning,0833.6,4.99,000.00,024.1,023.0,000.0,032.4,025.5,11.6,0000.0,0012.39,0004.79,0004.26
2023-11-01 06:25:00,SystemResetWarning,0833.7,5.00,000.00,024.0,023.0,000.0,032.4,025.4,11.8,0000.0,0011.93,0004.94,0004.42
2023-11-01 06:26:00,SystemResetWarning,0833.8,5.01,000.00,024.0,023.0,000.0,032.4,025.4,11.9,0001.3,0012.14,0005.12,0004.61
2023-11-01 06:27:00,SystemResetWarning,0833.7,5.01,000.00,024.0,023.0,000.0,032.4,025.4,11.9,0001.5,0013.07,0005.29,0004.81
2023-11-01 06:28:00,SystemResetWarning,0833.7,5.00,000.00,024.0,023.0,000.0,032.4,025.4,11.8,0001.8,0013.07,0005.45,0004.95
2023-11-01 06:29:00,SystemResetWarning,0833.7,5.00,000.00,024.0,023.0,000.0,032.4,025.4,11.6,0000.7,0012.73,0005.58,0005.10
2023-11-01 06:30:00,SystemResetWarning,0833.7,4.99,000.00,024.0,023.0,000.0,032.4,025.4,11.6,0000.5,0012.94,0005.73,0005.25
2023-11-01 06:31:00,SystemResetWarning,0833.7,5.00,000.00,024.0,023.0,000.0,032.4,025.4,11.4,0000.0,0012.95,0005.84,0005.38
2023-11-01 06:32:00,SystemResetWarning,0833.7,5.01,000.00,024.0,023.0,000.0,032.4,025.5,11.4,0001.2,0012.69,0005.96,0005.48
2023-11-01 06:33:00,SystemResetWarning,0833.7,5.00,000.00,024.0,023.0,000.0,032.4,025.4,11.4,0004.0,0012.72,0006.06,0005.56
2023-11-01 06:34:00,SystemResetWarning,0833.7,5.01,000.00,024.0,023.0,000.0,032.4,025.4,11.6,0000.0,0012.92,0006.10,0005.60
2023-11-01 06:35:00,SystemResetWarning,0833.7,5.00,000.00,024.0,022.9,000.0,032.4,025.4,11.7,0000.0,0013.13,0006.14,0005.65
2023-11-01 06:36:00,SystemResetWarning,0833.7,5.00,000.00,024.0,022.9,000.0,032.4,025.4,11.7,0000.0,0013.20,0006.25,0005.75
2023-11-01 06:37:00,SystemResetWarning,0833.7,5.00,000.00,024.0,022.9,000.0,032.4,025.4,11.7,0000.0,0013.20,0006.30,0005.80
2023-11-01 06:38:00,SystemResetWarning,0833.7,5.00,000.00,024.0,022.9,000.0,032.4,025.4,11.9,0000.0,0013.32,0006.35,0005.84
2023-11-01 06:39:00,SystemResetWarning,0833.7,5.00,000.00,024.0,022.9,000.0,032.4,025.4,12.1,0000.0,0012.73,0006.39,0005.90
2023-11-01 06:40:00,SystemResetWarning,0833.7,5.00,000.00,024.0,022.9,000.0,032.4,025.3,12.2,0000.0,0013.00,0006.42,0005.94
2023-11-01 06:41:00,SystemResetWarning,0833.7,5.00,000.00,024.0,022.9,000.0,032.4,025.3,11.8,0000.0,0012.60,0006.50,0006.00
2023-11-01 06:42:00,SystemResetWarning,0833.7,5.00,000.00,023.9,022.9,000.0,032.4,025.4,12.0,0000.0,0013.06,0006.58,0006.04
2023-11-01 06:43:00,SystemResetWarning,0833.7,5.00,000.00,023.9,022.9,000.0,032.4,025.3,12.0,0000.0,0013.54,0006.62,0006.07
2023-11-01 06:44:00,SystemResetWarning,0833.7,4.99,000.00,023.9,022.9,000.0,032.4,025.4,12.1,0000.0,0013.45,0006.62,0006.06
2023-11-01 06:45:00,SystemResetWarning,0833.7,5.00,000.00,023.9,022.9,000.0,032.4,025.3,12.1,0000.0,0013.35,0006.59,0006.04
2023-11-01 06:46:00,SystemResetWarning,0833.7,5.00,000.00,023.9,022.9,000.0,032.3,025.3,12.2,0000.0,0013.10,0006.55,0006.02
2023-11-01 06:47:00,SystemResetWarning,0833.8,5.00,000.00,023.9,022.9,000.0,032.3,025.3,12.2,0000.0,0013.00,0006.49,0005.97
2023-11-01 06:48:00,SystemResetWarning,0833.7,5.00,000.00,023.9,022.9,000.0,032.3,025.3,12.3,0000.0,0012.64,0006.43,0005.92
2023-11-01 06:49:00,SystemResetWarning,0833.7,5.00,000.00,023.9,022.9,000.0,032.3,025.3,12.3,0000.6,0011.83,0006.37,0005.87
2023-11-01 06:50:00,SystemResetWarning,0833.7,5.00,000.00,023.9,022.9,000.0,032.3,025.4,12.3,0003.2,0011.59,0006.34,0005.84
2023-11-01 06:51:00,SystemResetWarning,0833.7,5.01,000.00,023.9,022.9,000.0,032.3,025.4,12.4,0002.7,0010.94,0006.36,0005.84
2023-11-01 06:52:00,SystemResetWarning,0833.7,5.00,000.00,023.9,022.9,000.0,032.3,025.3,12.4,0001.6,0010.67,0006.27,0005.79
2023-11-01 06:53:00,SystemResetWarning,0833.7,5.00,000.00,023.9,022.9,000.0,032.3,025.2,12.5,0001.9,0010.49,0006.15,0005.69
2023-11-01 06:54:00,SystemResetWarning,0833.7,5.00,000.00,023.9,022.9,000.0,032.3,025.3,12.5,0002.8,0010.03,0006.06,0005.62
2023-11-01 06:55:00,SystemResetWarning,0833.7,5.00,000.00,023.9,022.8,000.0,032.3,025.3,12.4,0003.3,0010.16,0006.03,0005.60
2023-11-01 06:56:00,SystemResetWarning,0833.7,5.00,000.00,023.9,022.8,000.0,032.3,025.2,12.4,0001.5,0010.00,0006.01,0005.59
2023-11-01 06:57:00,SystemResetWarning,0833.6,5.00,000.00,023.9,022.8,000.0,032.3,025.2,12.4,0003.3,0009.86,0005.97,0005.55
2023-11-01 06:58:00,SystemResetWarning,0833.6,5.00,000.00,023.8,022.8,000.0,032.3,025.3,12.5,0003.4,0009.80,0005.91,0005.50
2023-11-01 06:59:00,SystemResetWarning,0833.7,5.00,000.00,023.8,022.8,000.0,032.3,025.2,12.6,0004.0,0010.15,0005.94,0005.50
